Location: Berg
(47.2344°N, 9.5296°E)
Time: 22:02:12
(UTC+00:00)

CSL-04 Rocket - Pass Details

Date: 24 January 2021
Orbit: 806 x 860 km, 98.9° (Epoch: 03 March)

Event Time Altitude Azimuth Distance (km) Brightness Sun altitude
Rises 17:23:58 0° 134° (SE) 3,367 6.5 -12.2°
Reaches altitude 10° 17:26:30 10° 125° (SE) 2,446 5.7 -12.6°
Maximum altitude 17:31:17 33° 63° (ENE) 1,392 4.3 -13.4°
Drops below altitude 10° 17:36:09 10° 2° (N) 2,489 6.0 -14.2°
Sets 17:38:44 0° 353° (N) 3,436 6.8 -14.6°
